Weather in Morzhovets

Russia / Arkhangel'skaya Oblast'     66°41′13″N   42°34′51″E
temp.,
°C
wind,
m/s
gust,
m/s
humid.,
%
clouds,
%
prec.,
mm/h
press.,
hPa
HPBL,
m
25 january, tue
tue2500:000sw111797100 1.5 996564
03:000sw71296100 3.0 997316
06:00−4sw599819 0.0 99786
09:00−7sw589875 0.0 99890
12:00−3wsw699365 0.0 998300
15:00−8wnw469186 0.0 99966
18:00−8wnw5989100 0.0 1001123
21:00−7w61089100 0.0 1002148
26 january, wed
wed2600:00−10sw579412 0.0 100375
03:00−10wsw610925 0.0 1004131
06:00−10wsw69925 0.0 1004137
09:00−10wsw711905 0.0 1005170
12:00−10wsw611915 0.0 1005156
15:00−10wsw6109421 0.0 1005148
18:00−11sw6109313 0.0 1006125
21:00−10sw71297100 0.0 1006229
27 january, thu
thu2700:00−12ssw71197100 0.0 1005199
03:00−12ssw61293100 0.0 1004191
06:00−9ssw71389100 0.0 1002299
09:00−8ssw71393100 0.0 1002329
12:00−8ssw7139280 0.0 1001349
15:00−9ssw61189100 0.0 1001242
18:00−8ssw71189100 0.1 1001316
21:00−9ssw61091100 0.1 1001281
28 january, fri
fri2800:00−9ssw5994100 0.2 1001276
03:00−9ssw5895100 0.3 1001267
06:00−9ssw4795100 0.1 1002243
09:00−9ssw4695100 0.2 1002226
12:00−9ssw4695100 0.1 1003257
15:00−9ssw4595100 0.2 1003181
18:00−9s3595100 0.1 1003175
21:00−10s3495100 0.1 1004177
29 january, sat
sat2900:00−10s3495100 0.1 1004158
03:00−10s3496100 0.1 1004151
06:00−10s3396100 0.1 1003146
09:00−11s339587 0.2 1003102
12:00−10s3494100 0.1 1002215
15:00−10s3496100 0.3 1001233
18:00−11s3496100 0.1 1000229
21:00−12s3399100 0.2 99950